ONEWEB-0010, 44058

Orbit data source: Space-Track

ONEWEB-0010, 44058 is a payload satellite owned by One Web (UK) in LEO that was launched on Wed, 27 Feb 2019 UTC via a SOYUZ-ST-B launch vehicle from the French Guiana (FRGUI). Payload-class satellites include a variety of spacecraft equipped with specific instruments for various scientific and technological missions. These include communications satellites like Starlink; space stations such as the ISS; scientific satellites like the Hubble; Earth observation satellites from companies like Planet Labs, Umbra, and HawkEye 360; GPS; miniature CubeSats for education and research; and military/defense satellites.

Loading next visibility...
Identifier
44058, 2019-010B
Orbit
LEO
Last TLE update
14 hours ago
Origin
Manufacturer
Airbus/Toulouse
Mission
Operational Commercial Communications
Bus & Motor
ARROW, Unknown motor
Mass
148 kg wet, ~140 kg dry
Launch date (UTC)
2019-02-27 (6 years ago)
Launch vehicle
SOYUZ-ST-B
Launch site
French Guiana (FRGUI)
Object type
Payload
Rocket body
Debris
Shape & HBR
Trap Box + 2 Pan, 5 m
Radar Cross Section
2.957 m², Large (>1 m²)

Expand to show TLE details & history

TLE from 14 hours ago
0 ONEWEB-0010
1 44058U 19010B   25181.86856464  .00000009  00000-0 -10610-4 0  9998
2 44058  87.9051 298.8098 0002346  99.2257 260.9139 13.16593616305386
Epoch: 2025-06-30T20:50Z
TLE epoch observation values (Epoch: 2025-06-30T20:50:43.984Z)
Latitude
-0.00008°
Longitude
66.95434°
Altitude
1,200.937 km
Speed
7.253 km/s
True Right ascension
19h 55m 14s
True Declination
0° 00' 00"
Sunlit
Object was in full shadow at epoch
Visualization orbit readout
Latitude
-13.58718°
Longitude
-112.65574°
Altitude
1,203.595 km
Speed
7.251 km/s
Apparent Right ascension
08h 51m 10s
Apparent Declination
-26° 26' 38"
Sunlit
Object is in daylight
Visualization observer readout
Local Sidereal Time
22:14:00
Azimuth
58.259° ENE
Elevation
-68.143°
Doppler factor
1
Orbital elements
Apogee altitude
1,196.646 km
Perigee altitude
1,193.093 km
Semi-major axis
7,573.007 km
Eccentricity
0.00023
Inclination
87.9051°
RAAN
298.8098°
Arg. of periapsis
99.2257°
True anomaly
Unknown
Mean anomaly
260.9139°
Eccentric anomaly
Unknown
Mean motion
3.29337 °/min
Orbital period
109.31 mins
BSTAR
-0.00001061
Loading maneuver chart data...
Loading SW <> Apogee altitude chart data...
Loading historical data...
Loading historical data...
Loading historical data...
Loading historical data...
Loading historical data...
Loading historical data...
Loading historical data...
Other satellites on launch #10 in the year 2019 (2019-02-27 UTC)

ONEWEB-0010 Visibility forecast

Observer location: undefined°, undefined°

Span
Click to sort rows by Start time (UTC) header in descending order
Start Az.
Max El. time (UTC)
Max El. Az.
Max El.
End time (UTC)
End Az.
13 mins2025-07-01 19:19:31.603Z11.093° NNE2025-07-01 19:26:31.603Z87.655° E36.314°2025-07-01 19:32:31.603Z154.351° SSE
11 mins2025-07-01 21:10:31.603Z333.469° NNW2025-07-01 21:15:31.603Z281.262° WNW26.747°2025-07-01 21:21:31.603Z224.425° SW
12 mins2025-07-02 07:36:31.603Z152.871° SSE2025-07-02 07:42:31.603Z76.217° E37.621°2025-07-02 07:48:31.603Z12.639° NNE
10 mins2025-07-02 09:27:31.603Z233.723° WSW2025-07-02 09:31:31.603Z275.477° WNW25.217°2025-07-02 09:37:31.603Z336.11° NNW
|